Voltar ao catálogo

STARLINK-6371

AtivoComunicaçõesVLEO
NORAD 57381·PAYLOAD·🇺🇸 United States

Lançado Jul 16, 2023 de Cape Canaveral Space Force Station

Loading…

Próximas Passagens (próximas 24 horas)

TLE

AtualizadoSource: CelesTrak SupGP

Época: Sep 14, 2026, 22:32 UTC

1 57381C 23099BF  26257.93937500  .00018954  00000+0  68664-3 0  2571
2 57381  42.9995 234.9110 0001391 261.5606 358.2590 15.27563402    12

Acompanhe STARLINK-6371 em tempo real com AllMySat

Download on the App Store